Weather History for KAVL - September, 2007

Change the Weather History Date:

Tuesday, September 4, 2007

  Actual Average Record
Temperature  
Mean Temperature 73 °F 70 °F  
Max Temperature 86 °F 80 °F 95 °F (1954)
Min Temperature 60 °F 60 °F 45 °F (1952)
Degree Days  
Heating Degree Days 0 0  
Month to date heating degree days 0 0  
Since 1 July heating degree days 0 2  
Cooling Degree Days 8 5  
Month to date cooling degree days 27 23  
Year to date cooling degree days 840 780  
Growing Degree Days 23 (Base 50)    
Moisture  
Dew Point 57 °F    
Average Humidity 60    
Maximum Humidity 93    
Minimum Humidity 27    
Precipitation  
Precipitation 0.00 in 0.13 in 1.87 in (1904)
Month to date precipitation 0.00 0.54  
Year to date precipitation 22.42 32.15  
Snow  
Snow 0.00 in 0.00 in 0.00 in ()
Month to date snowfall 0.0 0.0  
Since 1 July snowfall 0.0 0.0  
Since 1 September snowfall 0.0 0.0  
Snow Depth -    
Sea Level Pressure  
Sea Level Pressure 30.07 in    
Wind  
Wind Speed 2 mph (WNW)    
Max Wind Speed 10 mph    
Max Gust Speed 12 mph    
Visibility 7 miles    
Events      
T = Trace of Precipitation, MM = Missing Value Source: NWS Daily Summary

Daily Weather History Graph

Daily Weather History Graph

Search for Another Location

Airport or City:

Trip Planner

Search our weather history database for the weather conditions in past years. The results will help you decide how hot, cold, wet, or windy it might be!

Date:

Astronomy

Sep. 04, 2007 Rise Set
Actual Time 7:04 AM EDT 7:53 PM EDT
Civil Twilight 6:38 AM EDT 8:19 PM EDT
Nautical Twilight 6:07 AM EDT 8:49 PM EDT
Astronomical Twilight 5:36 AM EDT 9:21 PM EDT
Moon No Moon Rise 3:24 PM EDT (9/4)
Length of Visible Light 13h 40m
Length of Day
12h 48m
Last Quarter, 44% of the Moon is Illuminated
Sep 4
Last Quarter
Sep 11
New
Sep 19
First Quarter
Sep 26
Full
Oct 3
Last Quarter

Hourly Weather History & Observations

Time (EDT) Temp. Heat Index Dew Point Humidity Pressure Visibility Wind Dir Wind Speed Gust Speed Precip Events Conditions
12:54 AM 64.9 °F - 61.0 °F 87% 30.09 in 5.0 mi Calm Calm - N/A   Clear
1:54 AM 64.0 °F - 61.0 °F 90% 30.08 in 4.0 mi NW 3.5 mph - N/A   Clear
2:54 AM 63.0 °F - 60.1 °F 90% 30.07 in 3.0 mi Calm Calm - N/A   Clear
3:54 AM 62.1 °F - 60.1 °F 93% 30.08 in 3.0 mi Calm Calm - N/A   Partly Cloudy
4:54 AM 62.1 °F - 59.0 °F 90% 30.06 in 3.0 mi Calm Calm - N/A   Clear
5:42 AM 60.8 °F - 57.2 °F 88% 30.14 in 2.5 mi Calm Calm - N/A   Clear
5:54 AM 61.0 °F - 57.9 °F 90% 30.07 in 3.0 mi Calm Calm - N/A   Clear
6:54 AM 61.0 °F - 57.9 °F 90% 30.08 in 2.0 mi Calm Calm - N/A   Clear
7:54 AM 60.1 °F - 57.9 °F 93% 30.10 in 2.0 mi WNW 3.5 mph - N/A   Clear
8:31 AM 64.4 °F - 60.8 °F 88% 30.17 in 3.0 mi NW 3.5 mph - N/A   Clear
8:54 AM 66.9 °F - 62.1 °F 84% 30.10 in 3.0 mi NNW 5.8 mph - N/A   Haze
9:54 AM 72.0 °F - 63.0 °F 73% 30.10 in 4.0 mi North 5.8 mph - N/A   Haze
10:54 AM 75.9 °F - 61.0 °F 60% 30.10 in 6.0 mi North 8.1 mph - N/A   Haze
11:54 AM 81.0 °F 80.7 °F 55.0 °F 41% 30.09 in 10.0 mi NNW 5.8 mph - N/A   Clear
12:54 PM 82.0 °F - 52.0 °F 35% 30.08 in 10.0 mi Calm Calm - N/A   Clear
1:54 PM 82.9 °F - 52.0 °F 34% 30.06 in 10.0 mi SW 6.9 mph - N/A   Clear
2:54 PM 84.9 °F - 52.0 °F 32% 30.04 in 10.0 mi Calm Calm - N/A   Clear
3:54 PM 84.9 °F - 48.9 °F 29% 30.02 in 10.0 mi WNW 3.5 mph - N/A   Clear
4:54 PM 86.0 °F - 50.0 °F 29% 30.01 in 10.0 mi South 4.6 mph - N/A   Clear
5:54 PM 86.0 °F - 48.0 °F 27% 30.01 in 10.0 mi ESE 3.5 mph - N/A   Clear
6:54 PM 82.9 °F - 52.0 °F 34% 30.01 in 10.0 mi Variable 3.5 mph - N/A   Clear
7:54 PM 78.1 °F - 55.0 °F 45% 30.03 in 10.0 mi Calm Calm - N/A   Clear
8:54 PM 73.0 °F - 57.9 °F 59% 30.04 in 10.0 mi Calm Calm - N/A   Clear
9:54 PM 69.1 °F - 59.0 °F 70% 30.06 in 10.0 mi Calm Calm - N/A   Clear
10:54 PM 66.0 °F - 55.0 °F 68% 30.06 in 10.0 mi WSW 3.5 mph - N/A   Clear
11:54 PM 64.0 °F - 55.0 °F 73% 30.06 in 10.0 mi Calm Calm - N/A   Clear